Temp
65 64 64 61 61 62 62 62 61 62 62 61 60 60 61 63 62 61 61 60 60 59 58 57 57 58 60 57 56 58 57 56 55 56 55 57 56 56 59 57 55 56
65 65 65 64 63 63 62 63 63 63 62 61 62 62 62 62 62 63 62 61 61 62 60 58 57 58 57 58 57 58 57 56 56 59 57 57 55 56 56 55 55 55
65 65 65 64 64 63 63 63 63 63 63 63 63 62 62 62 62 61 62 62 62 62 60 59 57 58 59 58 56 56 56 55 55 54 57 57 54 56 54 54 53 55
65 66 66 66 65 65 64 63 62 62 62 63 63 64 64 65 63 62 62 64 62 61 61 59 60 59 59 59 57 56 55 54 55 54 55 54 54 56 55 54 54 55
65 65 65 65 65 65 64 64 64 62 62 63 64 64 64 63 63 62 61 61 61 62 61 60 59 60 59 58 57 58 56 56 55 53 53 54 54 53 55 55 55 56
64 65 66 66 65 64 64 64 65 64 63 62 63 64 65 65 64 64 61 61 61 62 61 61 61 60 60 60 58 58 59 58 58 55 57 58 58 57 57 56 53 54
63 63 64 64 64 65 63 63 63 64 64 65 65 64 64 64 64 65 64 63 63 62 63 62 61 60 60 59 58 58 58 58 59 58 58 58 57 57 57 56 56 56
62 63 63 64 64 64 64 63 63 63 63 64 64 65 65 66 66 66 66 65 64 64 63 63 62 62 62 61 60 60 60 60 60 59 58 59 57 57 58 58 58 58
63 62 63 63 62 62 62 62 63 63 64 63 63 64 64 64 64 64 66 66 66 65 65 64 64 64 64 62 61 60 61 61 61 60 60 59 58 58 60 59 58 58
62 63 63 62 62 62 62 62 63 62 63 63 63 63 63 63 65 67 66 66 66 66 65 65 65 65 64 64 64 62 61 61 61 61 61 61 60 61 60 60 60 58
62 62 62 61 61 61 62 62 62 62 62 63 63 64 64 64 65 65 65 65 64 65 65 65 65 65 64 64 64 64 63 62 61 61 61 61 61 61 63 62 61 60
61 61 61 61 61 61 61 61 62 63 62 63 64 64 65 65 66 66 67 65 66 65 66 65 65 64 64 63 64 64 63 63 62 62 62 63 62 61 62 63 62 62
62 62 61 61 61 61 61 61 62 62 62 63 63 63 62 63 64 63 64 64 65 64 64 63 64 63 63 61 61 62 63 63 61 61 62 62 63 63 62 63 64 64
61 61 61 61 60 60 61 60 61 61 62 63 63 62 62 62 62 63 62 62 63 63 63 62 62 62 61 60 61 61 61 61 61 61 62 61 61 62 63 64 64 65
61 61 61 61 61 61 61 60 61 61 62 63 62 62 62 62 61 61 60 60 61 61 61 61 62 61 60 60 60 60 60 60 60 61 60 60 60 61 62 63 64 65
60 60 60 61 60 60 60 60 61 62 62 62 62 61 62 62 62 61 60 60 60 61 60 61 61 60 60 59 59 58 58 60 60 59 59 59 58 59 60 61 62 63
62 62 61 61 60 61 61 61 61 61 60 61 60 61 61 61 61 61 60 59 60 59 59 58 55 52 47 43 45 48 55 55 56 57 57 57 57 58 59 59 60 62
63 63 63 62 62 63 63 62 61 61 60 60 60 60 59 59 59 60 60 59 59 57 55 54 52 49 41 43 42 43 49 53 55 56 57 57 57 57 58 58 59 60
64 63 62 62 62 61 61 61 60 60 59 59 59 59 59 59 58 59 58 58 55 54 52 52 52 47 41 42 42 41 41 48 53 53 54 55 56 57 58 58 58 59
65 63 62 61 61 61 60 59 60 59 59 58 59 59 58 57 57 57 57 55 54 54 53 52 50 47 41 42 41 41 40 43 52 54 55 55 56 57 58 58 58 58
65 64 62 62 61 60 59 58 58 59 59 58 58 57 57 56 56 56 56 56 55 54 54 51 50 45 41 42 41 41 41 45 53 55 56 56 57 58 58 56 56 56
62 62 62 61 60 58 57 56 56 56 56 56 57 56 56 56 55 56 55 56 55 54 52 50 49 43 42 43 43 43 46 53 54 55 56 56 56 55 53 52 52 51
58 57 57 56 57 56 55 55 55 54 54 54 54 53 52 51 51 51 51 51 51 50 48 47 46 44 42 43 44 45 49 53 54 54 55 55 53 53 52 52 52 51
56 56 55 55 54 55 55 54 54 53 52 53 52 51 51 50 50 49 49 49 49 48 47 46 45 47 42 42 43 45 51 53 53 53 53 53 52 52 52 51 52 53
55 55 54 54 54 53 54 54 53 53 53 52 51 51 51 50 50 49 48 48 48 49 55 48 45 47 43 42 42 44 48 48 49 49 48 48 48 48 49 48 48 49
53 54 53 53 52 52 52 52 53 52 51 51 51 50 52 49 50 48 47 48 48 47 49 46 46 45 44 42 42 43 46 48 46 47 47 46 46 45 45 44 45 44
MSLP
1014.45 1014.65 1014.93 1015.21 1015.37 1015.45 1015.53 1015.69 1015.69 1015.69 1015.77 1015.89 1015.97 1016.01 1016.01 1015.81 1015.89 1016.01 1016.01 1016.17 1016.21 1016.17 1016.29 1016.41 1016.41 1016.41 1016.49 1016.65 1016.77 1016.93 1017.01 1017.09 1017.13 1017.17 1017.13 1017.17 1017.17 1017.05 1016.97 1016.89 1016.93 1016.89
1014.45 1014.65 1014.85 1015.01 1015.09 1015.21 1015.25 1015.25 1015.33 1015.45 1015.53 1015.65 1015.69 1015.69 1015.77 1015.73 1015.73 1015.81 1015.89 1016.05 1016.13 1016.01 1016.05 1016.21 1016.33 1016.29 1016.29 1016.37 1016.53 1016.69 1016.85 1016.93 1016.93 1017.01 1017.09 1017.09 1017.17 1017.21 1017.13 1016.97 1016.89 1016.89
1014.49 1014.65 1014.77 1014.85 1014.81 1014.81 1014.89 1014.97 1015.05 1015.17 1015.29 1015.33 1015.41 1015.53 1015.57 1015.53 1015.57 1015.65 1015.73 1015.81 1015.89 1015.85 1015.93 1016.05 1016.17 1016.17 1016.09 1016.13 1016.29 1016.41 1016.53 1016.61 1016.77 1016.77 1016.85 1016.89 1016.97 1016.93 1016.93 1016.97 1016.97 1016.85
1014.29 1014.41 1014.45 1014.41 1014.41 1014.53 1014.73 1014.89 1015.09 1015.09 1015.17 1015.29 1015.29 1015.25 1015.25 1015.25 1015.33 1015.49 1015.49 1015.49 1015.61 1015.65 1015.73 1015.89 1015.97 1016.05 1016.05 1016.05 1016.17 1016.33 1016.41 1016.45 1016.41 1016.49 1016.61 1016.69 1016.69 1016.69 1016.69 1016.69 1016.61 1016.61
1014.21 1014.21 1014.17 1014.17 1014.25 1014.41 1014.65 1014.85 1014.89 1014.97 1015.01 1014.97 1014.97 1014.97 1015.05 1015.09 1015.13 1015.29 1015.33 1015.37 1015.41 1015.45 1015.57 1015.69 1015.81 1015.93 1015.97 1016.05 1016.13 1016.25 1016.29 1016.29 1016.29 1016.41 1016.45 1016.49 1016.45 1016.57 1016.49 1016.49 1016.45 1016.41
1013.97 1014.05 1014.01 1014.05 1014.21 1014.45 1014.69 1014.93 1014.97 1015.05 1015.05 1014.93 1014.77 1014.73 1014.73 1014.73 1014.85 1014.93 1015.09 1015.17 1015.25 1015.29 1015.41 1015.53 1015.69 1015.77 1015.85 1015.93 1016.09 1016.17 1016.17 1016.21 1016.13 1016.21 1016.29 1016.29 1016.21 1016.25 1016.33 1016.37 1016.37 1016.33
1014.29 1014.25 1013.89 1013.77 1014.05 1014.29 1014.53 1014.73 1014.77 1014.77 1014.73 1014.81 1014.93 1014.89 1014.61 1014.61 1014.65 1014.61 1014.69 1014.81 1014.93 1015.13 1015.21 1015.41 1015.61 1015.69 1015.81 1015.97 1016.13 1016.13 1016.13 1016.05 1016.01 1016.13 1016.21 1016.17 1016.17 1016.13 1016.17 1016.17 1016.13 1016.13
1014.29 1014.05 1013.85 1013.89 1014.17 1014.45 1014.53 1014.65 1014.73 1014.69 1014.65 1014.65 1014.69 1014.61 1014.77 1014.49 1014.29 1014.29 1014.33 1014.53 1014.73 1014.85 1014.97 1015.09 1015.25 1015.37 1015.49 1015.69 1015.85 1015.93 1015.93 1015.93 1015.97 1015.97 1016.01 1015.97 1016.01 1016.01 1015.89 1015.93 1015.89 1015.85
1013.73 1013.49 1013.89 1014.25 1014.57 1014.77 1014.77 1014.53 1014.57 1014.53 1014.49 1014.53 1014.49 1014.45 1014.41 1014.49 1014.45 1014.33 1014.21 1014.25 1014.45 1014.61 1014.73 1014.81 1014.85 1014.97 1015.01 1015.21 1015.45 1015.57 1015.57 1015.65 1015.69 1015.77 1015.77 1015.77 1015.81 1015.73 1015.65 1015.69 1015.85 1015.81
1013.45 1013.69 1014.13 1014.45 1014.77 1014.65 1014.41 1014.29 1014.41 1014.49 1014.45 1014.49 1014.53 1014.41 1014.37 1014.33 1014.17 1014.17 1014.21 1014.25 1014.33 1014.37 1014.45 1014.49 1014.61 1014.69 1014.81 1014.85 1014.89 1015.05 1015.21 1015.21 1015.25 1015.33 1015.37 1015.37 1015.37 1015.41 1015.45 1015.61 1015.65 1015.69
1014.01 1014.09 1014.37 1014.65 1014.61 1014.29 1014.17 1014.21 1014.37 1014.45 1014.45 1014.45 1014.41 1014.25 1014.13 1014.17 1014.21 1014.25 1014.21 1014.17 1014.25 1014.29 1014.41 1014.49 1014.53 1014.61 1014.73 1014.77 1014.77 1014.77 1014.77 1014.85 1015.01 1015.05 1015.05 1015.05 1015.01 1015.05 1015.09 1015.21 1015.29 1015.29
1014.45 1014.41 1014.33 1014.21 1014.17 1014.21 1014.25 1014.37 1014.33 1014.17 1014.09 1014.09 1014.13 1014.17 1014.09 1014.09 1014.09 1014.05 1014.13 1014.17 1014.13 1014.21 1014.25 1014.33 1014.33 1014.37 1014.41 1014.49 1014.45 1014.45 1014.53 1014.65 1014.77 1014.81 1014.77 1014.73 1014.77 1014.77 1014.77 1014.81 1014.85 1014.85
1014.57 1014.37 1014.21 1014.17 1014.13 1014.17 1014.21 1014.09 1013.93 1013.85 1013.93 1014.05 1014.13 1014.21 1014.25 1014.17 1014.09 1014.13 1014.09 1014.09 1014.09 1014.21 1014.33 1014.37 1014.33 1014.29 1014.29 1014.33 1014.33 1014.25 1014.25 1014.29 1014.37 1014.41 1014.45 1014.49 1014.45 1014.49 1014.49 1014.53 1014.53 1014.49
1014.21 1014.21 1014.25 1014.13 1014.05 1014.05 1014.09 1014.05 1013.97 1013.97 1014.05 1014.13 1014.21 1014.33 1014.33 1014.17 1013.97 1013.97 1013.89 1013.93 1013.93 1014.09 1014.33 1014.37 1014.37 1014.45 1014.49 1014.53 1014.45 1014.33 1014.33 1014.29 1014.29 1014.33 1014.29 1014.29 1014.33 1014.37 1014.33 1014.33 1014.25 1014.13
1013.65 1013.73 1013.81 1013.89 1013.97 1014.01 1013.97 1013.93 1013.97 1014.09 1014.13 1014.01 1013.97 1014.33 1014.49 1014.29 1014.01 1013.81 1013.81 1013.97 1013.97 1013.97 1014.21 1014.45 1014.45 1014.45 1014.53 1014.61 1014.49 1014.33 1014.37 1014.37 1014.41 1014.41 1014.37 1014.37 1014.33 1014.29 1014.29 1014.25 1014.09 1013.89
1013.81 1013.77 1013.81 1013.85 1013.93 1014.05 1014.13 1014.17 1014.09 1013.93 1013.77 1013.77 1014.13 1014.49 1014.37 1014.09 1013.85 1013.81 1013.81 1014.01 1014.21 1014.21 1014.21 1014.41 1014.65 1014.77 1014.85 1014.69 1014.61 1014.61 1014.57 1014.49 1014.45 1014.41 1014.41 1014.41 1014.41 1014.41 1014.33 1014.17 1013.97 1013.77
1013.81 1013.85 1013.89 1013.97 1013.93 1013.97 1013.97 1013.93 1013.89 1013.85 1014.01 1014.21 1014.33 1014.25 1014.25 1014.09 1014.01 1014.01 1014.13 1014.21 1014.29 1014.37 1014.65 1014.97 1015.33 1015.61 1015.37 1015.13 1014.89 1014.77 1014.65 1014.57 1014.53 1014.45 1014.41 1014.41 1014.33 1014.25 1014.17 1014.13 1013.93 1013.77
1014.17 1014.17 1014.21 1014.29 1014.25 1014.29 1014.29 1014.29 1014.29 1014.33 1014.41 1014.49 1014.57 1014.57 1014.57 1014.45 1014.49 1014.53 1014.53 1014.53 1014.69 1015.09 1015.33 1015.53 1015.69 1015.77 1015.53 1015.37 1015.21 1015.05 1014.97 1014.77 1014.53 1014.41 1014.29 1014.29 1014.25 1014.17 1014.09 1014.05 1013.97 1013.73
1014.61 1014.69 1014.77 1014.85 1014.85 1014.85 1014.81 1014.73 1014.73 1014.77 1014.81 1014.85 1014.89 1014.89 1014.85 1014.97 1015.05 1015.01 1015.05 1015.17 1015.37 1015.57 1015.77 1015.85 1015.81 1015.97 1015.69 1015.57 1015.41 1015.21 1015.09 1014.85 1014.65 1014.49 1014.37 1014.29 1014.21 1014.17 1014.09 1014.01 1013.89 1013.77
1014.85 1014.93 1015.09 1015.17 1015.13 1015.09 1015.01 1015.01 1015.01 1015.13 1015.21 1015.21 1015.21 1015.17 1015.25 1015.41 1015.45 1015.49 1015.57 1015.69 1015.81 1015.81 1015.89 1016.01 1016.09 1016.13 1016.01 1015.81 1015.57 1015.29 1015.13 1014.93 1014.69 1014.61 1014.57 1014.49 1014.41 1014.29 1014.17 1014.09 1013.97 1013.93
1015.09 1015.17 1015.29 1015.33 1015.37 1015.37 1015.37 1015.33 1015.33 1015.33 1015.33 1015.37 1015.41 1015.57 1015.65 1015.77 1015.81 1015.85 1015.85 1015.93 1015.97 1015.93 1015.93 1016.09 1016.17 1016.29 1016.13 1015.93 1015.69 1015.41 1015.17 1014.93 1014.69 1014.53 1014.45 1014.41 1014.33 1014.25 1014.29 1014.41 1014.41 1014.25
1015.49 1015.53 1015.57 1015.61 1015.69 1015.69 1015.73 1015.73 1015.77 1015.77 1015.81 1015.77 1015.77 1015.85 1015.89 1015.93 1015.97 1015.85 1015.89 1015.97 1016.05 1016.09 1016.09 1016.21 1016.29 1016.29 1016.05 1015.77 1015.49 1015.25 1015.01 1014.77 1014.65 1014.49 1014.45 1014.49 1014.57 1014.77 1014.89 1014.89 1014.85 1014.81
1015.89 1015.93 1016.01 1016.01 1015.97 1015.97 1016.01 1016.05 1016.05 1016.09 1016.13 1016.01 1016.09 1016.17 1016.17 1016.17 1016.21 1016.17 1016.13 1016.13 1016.17 1016.25 1016.25 1016.29 1016.29 1016.29 1016.13 1015.85 1015.53 1015.29 1015.01 1014.85 1014.77 1014.73 1014.77 1014.85 1015.13 1015.13 1015.17 1015.09 1015.01 1015.01
1016.09 1016.13 1016.13 1016.13 1016.13 1016.13 1016.17 1016.21 1016.25 1016.33 1016.33 1016.29 1016.25 1016.33 1016.41 1016.45 1016.41 1016.41 1016.37 1016.29 1016.21 1016.29 1016.29 1016.25 1016.33 1016.33 1016.21 1015.93 1015.65 1015.41 1015.17 1015.09 1015.05 1015.09 1015.13 1015.17 1015.33 1015.37 1015.37 1015.37 1015.21 1015.05
1016.25 1016.21 1016.21 1016.17 1016.25 1016.29 1016.29 1016.33 1016.37 1016.37 1016.37 1016.41 1016.49 1016.49 1016.57 1016.61 1016.57 1016.49 1016.49 1016.45 1016.37 1016.33 1016.33 1016.25 1016.33 1016.29 1016.21 1016.01 1015.81 1015.61 1015.41 1015.37 1015.33 1015.37 1015.53 1015.65 1015.61 1015.61 1015.53 1015.53 1015.49 1015.33
1016.45 1016.37 1016.37 1016.29 1016.29 1016.37 1016.45 1016.49 1016.57 1016.53 1016.49 1016.49 1016.57 1016.57 1016.57 1016.65 1016.61 1016.53 1016.41 1016.49 1016.49 1016.37 1016.37 1016.33 1016.21 1016.21 1016.13 1016.05 1015.97 1015.85 1015.69 1015.61 1015.61 1015.49 1015.73 1015.81 1015.77 1015.65 1015.57 1015.57 1015.57 1015.49
Wind_Speed
7 5 5 5 6 6 6 6 6 6 6 6 6 6 7 8 5 5 6 5 5 5 4 4 4 4 3 2 1 1 1 2 1 2 3 1 2 1 4 4 2 4
6 5 3 4 4 4 6 7 7 7 7 6 6 6 6 5 6 6 6 6 5 6 5 4 4 5 5 4 3 2 1 0 3 0 2 2 1 0 2 3 4 2
4 4 4 5 6 6 7 7 7 7 7 8 7 6 6 5 6 6 6 7 7 7 6 5 4 5 5 5 4 3 4 4 3 3 1 3 2 2 3 2 3 3
5 5 6 6 6 5 5 4 5 5 5 5 7 8 7 6 6 7 7 8 7 7 7 5 6 5 5 5 4 4 4 4 4 4 4 3 3 3 4 2 2 2
2 4 4 4 4 4 3 4 5 5 5 7 7 7 7 6 6 6 6 7 7 7 7 7 6 6 6 4 4 5 4 5 4 3 4 5 5 4 5 4 4 4
1 1 1 1 0 0 1 3 3 2 2 4 7 7 7 8 7 6 7 7 7 7 7 6 7 7 6 6 5 6 6 6 6 4 5 6 7 5 4 4 4 5
1 2 2 3 2 0 1 1 1 0 1 4 3 5 6 7 7 8 7 7 7 7 7 7 7 7 5 4 4 6 7 7 6 6 7 7 6 7 5 5 6 6
2 0 1 3 2 1 3 3 3 2 2 3 4 5 4 6 8 7 6 6 7 8 8 8 8 9 8 7 8 8 8 6 7 7 7 8 6 7 7 6 6 7
1 2 1 3 2 2 3 3 3 3 2 2 3 3 5 6 5 4 6 5 5 6 8 8 9 10 9 8 9 9 9 8 7 7 9 9 8 9 9 7 6 6
3 3 3 4 5 4 4 2 3 4 3 2 3 3 3 3 5 5 5 4 4 5 6 7 7 7 7 9 10 10 10 10 10 10 10 9 9 9 8 6 7 6
4 5 6 6 6 4 4 3 5 5 3 4 5 5 5 3 2 2 3 3 4 4 3 4 4 4 5 6 7 8 9 9 9 9 10 10 10 9 8 8 8 8
6 6 7 6 5 3 3 4 6 6 5 5 5 6 6 5 5 6 4 3 0 2 1 1 1 1 3 5 8 8 8 8 8 8 9 10 10 9 8 8 8 9
8 8 7 6 6 5 4 3 3 3 2 3 3 4 3 4 4 5 8 8 7 2 0 2 2 2 3 3 2 4 6 8 8 8 9 9 9 9 8 7 8 8
6 6 7 5 3 2 1 2 3 3 3 3 3 3 3 4 5 5 6 4 6 6 5 3 5 4 3 3 3 2 0 3 5 7 8 7 6 5 5 7 8 9
3 2 1 1 1 1 1 2 3 3 3 3 2 2 3 4 3 3 3 3 3 4 3 5 6 5 5 6 6 4 1 2 3 3 2 3 3 3 4 6 7 7
3 3 2 1 2 2 2 2 2 2 3 2 1 3 1 2 2 2 1 1 1 2 2 1 1 3 8 8 6 4 4 4 2 2 1 2 3 4 5 5 6 6
6 5 5 5 4 4 4 5 6 6 5 5 6 5 3 2 3 5 4 2 0 1 4 7 6 6 11 10 8 4 2 2 3 4 3 3 4 5 5 5 5 5
6 6 7 7 7 7 7 6 6 6 6 5 4 5 5 5 6 6 6 5 7 9 7 5 5 10 10 11 9 9 5 3 3 4 4 4 4 5 5 4 5 5
6 6 6 6 6 5 5 5 6 7 7 7 7 6 6 7 7 7 8 8 8 7 6 5 6 10 10 10 9 8 7 5 3 3 3 4 4 4 4 4 5 6
7 7 7 6 5 5 5 5 6 7 6 6 6 6 7 7 8 9 8 8 7 6 6 6 5 9 10 10 10 10 8 5 2 3 3 3 4 3 4 5 5 5
6 7 6 6 6 6 6 6 6 5 6 6 6 6 6 6 6 7 6 6 6 6 6 4 5 10 8 8 8 7 7 3 2 2 2 3 4 4 5 6 6 5
7 6 6 6 6 6 6 6 6 5 6 5 6 6 5 5 5 5 6 6 5 5 5 6 5 9 9 9 9 8 7 4 3 2 3 4 6 8 6 5 6 5
6 5 4 4 4 5 5 5 5 5 4 4 6 4 5 5 4 3 3 4 4 3 4 4 4 7 8 8 9 8 5 4 4 4 5 7 7 6 5 6 6 6
5 5 4 3 4 4 4 4 4 3 3 3 5 5 5 4 3 3 2 2 4 4 3 4 4 5 7 8 8 9 6 5 4 5 6 6 5 5 4 5 7 12
4 5 4 4 3 3 3 4 4 3 2 2 3 4 4 3 3 4 3 1 2 3 5 5 4 4 6 8 8 7 5 4 5 5 6 5 4 4 3 3 3 6
4 5 4 4 4 3 3 2 1 2 2 2 1 2 4 3 2 3 4 2 1 2 3 3 4 3 4 7 7 7 5 4 4 6 5 4 3 3 3 3 3 3
Wind_Direction
199 192 189 183 191 198 200 205 215 204 204 198 193 204 196 211 207 197 205 204 210 207 207 217 220 201 204 166 144 124 21 337 343 2 34 15 302 242 221 233 212 193
206 202 199 184 204 206 205 200 199 198 204 201 211 205 211 207 213 199 199 203 211 214 207 207 220 210 205 219 206 195 222 299 297 259 6 0 334 222 257 244 229 237
202 207 211 205 204 207 207 201 198 200 200 205 209 213 208 206 208 204 200 198 205 210 208 209 214 227 213 207 201 198 206 211 245 263 271 270 254 296 272 223 219 210
202 204 209 217 221 221 207 191 195 197 207 205 207 210 209 211 197 198 204 203 201 205 205 201 212 219 218 213 206 214 222 225 220 211 223 252 248 236 261 253 275 286
244 215 200 213 226 241 239 211 202 195 193 210 211 208 211 216 215 194 197 202 201 203 197 205 208 217 218 212 201 217 229 230 241 212 214 243 256 228 240 223 231 244
142 151 189 175 64 57 299 278 294 300 275 219 211 206 209 208 213 202 188 192 199 197 197 204 208 219 211 210 200 212 222 228 239 223 227 233 247 239 238 229 234 247
74 2 287 222 211 96 55 359 336 112 162 259 290 251 211 202 207 211 196 190 189 194 197 200 210 219 215 210 211 225 227 224 226 216 221 233 233 252 251 234 229 232
130 155 315 340 316 197 213 220 234 241 213 230 220 233 254 233 209 210 208 190 184 193 198 201 205 209 207 199 211 216 225 223 224 216 221 228 223 237 242 237 227 228
186 205 214 271 270 267 237 196 228 243 257 238 259 263 215 229 250 240 221 206 202 196 198 199 200 205 208 203 210 213 216 218 219 220 221 224 223 229 234 233 236 236
262 280 255 243 254 235 226 225 247 248 231 240 285 279 267 237 216 224 228 228 220 214 213 216 212 213 212 211 214 213 215 216 215 217 221 224 223 226 231 230 231 236
231 228 223 226 217 204 212 208 224 229 209 232 238 251 265 265 257 215 225 221 223 226 232 233 232 224 230 231 232 227 224 222 222 224 226 226 224 224 222 223 228 228
229 234 238 240 241 235 231 223 220 212 215 225 231 245 246 247 266 277 282 249 250 356 349 57 11 238 212 222 224 221 223 227 231 232 233 231 228 225 227 225 228 231
208 218 227 231 229 217 208 231 248 253 247 248 243 250 249 245 242 225 236 239 248 216 69 14 2 313 282 261 244 228 222 222 226 231 236 234 231 228 229 233 237 239
213 207 209 218 233 224 212 237 246 246 239 246 260 265 283 259 240 227 226 207 210 212 185 189 263 262 272 294 294 286 295 219 220 235 237 237 239 242 244 244 242 240
252 216 148 158 209 247 321 311 296 271 260 276 340 355 278 281 280 256 213 205 225 230 191 202 227 230 206 224 246 281 268 240 272 282 279 276 273 275 270 263 258 249
55 77 110 114 138 155 195 212 259 302 13 13 107 136 93 308 348 358 38 112 246 285 242 221 0 8 348 323 314 323 311 308 313 319 300 264 268 270 274 279 272 269
52 61 62 52 43 50 56 56 42 53 65 52 28 35 36 20 9 25 19 31 107 328 32 46 43 16 5 11 8 346 308 291 285 288 274 265 256 251 251 255 267 271
51 48 46 41 41 43 46 42 47 46 46 49 47 40 30 35 35 29 23 21 44 57 52 35 33 11 6 6 6 4 356 303 279 270 275 274 266 267 273 276 280 284
65 68 60 54 52 56 55 56 57 55 50 48 44 41 49 46 42 41 45 56 63 55 47 30 20 10 359 356 349 347 348 337 282 270 274 277 284 288 296 297 294 290
74 73 71 63 63 60 61 62 68 71 71 67 60 50 53 51 46 53 54 56 56 58 54 42 31 3 353 351 346 341 339 332 295 308 306 303 299 306 296 290 294 303
67 76 77 75 68 63 59 54 54 61 68 73 71 61 59 57 60 70 66 67 63 62 58 41 26 9 4 1 357 351 341 322 317 332 315 313 316 318 5 19 18 12
40 52 71 73 70 64 63 61 55 54 62 65 73 70 67 75 73 80 87 82 75 68 65 47 16 11 11 18 19 17 19 37 14 10 18 36 41 52 45 27 21 11
50 61 61 66 76 79 74 73 77 77 80 90 91 94 93 85 83 76 78 95 89 82 81 59 25 6 6 12 26 21 35 38 36 43 50 62 53 47 45 35 32 27
48 66 81 90 84 92 96 92 88 80 86 91 110 109 98 104 108 88 65 93 104 96 91 83 41 5 9 7 14 32 39 52 48 59 53 61 68 53 43 36 35 41
49 62 77 95 105 119 123 123 125 130 137 107 116 117 129 137 113 108 93 76 113 119 109 95 79 31 27 28 26 32 52 46 54 69 72 55 54 51 33 43 28 34
39 61 63 77 94 86 72 68 45 123 150 137 148 141 145 143 134 118 115 116 81 102 103 110 101 74 51 54 44 31 48 74 51 70 73 74 61 56 44 25 24 16